Location: Newark
(44.3248°N, 23.7839°E)
Time: 09:54:34
(UTC+00:00)

UNISAT 6 - Pass Details

Date: 28 April 2024
Orbit: 593 x 667 km, 97.7° (Epoch: 29 May)

Event Time Altitude Azimuth Distance (km) Brightness Sun altitude
Rises 02:30:54 0° 174° (S) 2,907 ? -8.7°
Reaches altitude 10° 02:33:07 10° 177° (S) 1,992 ? -8.4°
Maximum altitude 02:37:25 63° 259° (W) 691 ? -7.7°
Drops below altitude 10° 02:41:39 10° 341° (NNW) 1,966 ? -7.0°
Sets 02:43:50 0° 345° (NNW) 2,865 ? -6.7°
